Вернуться в каталог

FALCON 9 R/B

АктивенHEO
NORAD 62007·ROCKET BODY·🇺🇸 United States

Запущен Nov 17, 2024 с Cape Canaveral Space Force Station

Loading…

Ближайшие Пролёты (ближайшие 24 часа)

TLE

СвежийSource: Space-Track

Эпоха: Sep 14, 2026, 03:30 UTC

1 62007U 24212B   26257.14595157  .00000549  00000-0  27712-2 0  9994
2 62007  18.6350  46.3211 7823799 135.7637 323.3615  1.58978047 10535

Отслеживайте FALCON 9 R/B в реальном времени с AllMySat

Download on the App Store